User: anonymous   Login
Location: Chenango Forks
(42.2242°N, 75.8278°W)
Time: 17:28:02
(UTC-04:00)
Language:

Okean 3 Rocket - Orbit

View from above orbital plane
View from above orbital plane
View from above satellite
View from above satellite

Ground track
Ground track

The orbit data is extracted from the following two-line orbital elements,

1 21398U 91039B   15183.09807301  .00000118  00000-0  12644-4 0  9992
2 21398 082.5221 172.6956 0021892 013.9032 053.2498 14.79486939298023
Epoch (UTC): 02 July 2015 02:21:13
Eccentricity: 0.0021892
inclination: 82.5221°
perigee height: 615 km
apogee height: 646 km
right ascension of ascending node: 172.6956°
argument of perigee: 13.9032°
revolutions per day: 14.79486939
mean anomaly at epoch: 53.2498°
orbit number at epoch: 29802

The dashed part of the orbit path shows where the satellite is in the earth's shadow,  

DLR